TIME,DELAY(SENSOR),PRES,OXYGEN,RAWTEMP,T(OPTODE),TCPHASE,FLUOR,BETA(BETA700),BETA(BETA412),BETA(BETA440),CDOM,C(CSC),ED(ED412.20),ED(ED444.00),ED(ED489.60),ED(ED554.30),LU(LU412.10),LU(LU443.90),LU(LU489.70),LU(LU554.70),COMP,TILTX,TILTY,CHECK
1351826568,5809,880.1099853515625000,32.6343002319335940,553.5988769531250000,4.6841111183166500,56.6028900146484400,54,98,100,77,81,15540,0,0,0,0,2147125257,2147771693,2147571428,2147570048,1556,3,13,64979
1351830164,5809,950.9299926757812000,38.5936012268066400,561.0477294921875000,4.4534230232238770,55.7322006225585940,56,101,101,77,82,15539,0,0,0,0,2147124726,2147775177,2147575890,2147569206,938,3,13,24169
1351833764,5812,958.0200195312500000,40.6306800842285160,563.5836791992188000,4.3747768402099610,55.4535408020019500,55,101,100,78,82,15538,0,0,0,0,2147124544,2147773028,2147574235,2147570852,455,3,13,20159
1351837364,5811,991.8300170898438000,41.2958717346191400,566.2440185546875000,4.2922229766845700,55.3804893493652340,55,97,99,79,82,15538,0,0,0,0,2147121344,2147766930,2147573860,2147570889,3481,3,13,63180
1351840964,5810,994.8200073242188000,40.5460700988769500,566.2595214843750000,4.2917399406433105,55.4930191040039060,56,100,100,78,83,15537,0,0,0,0,2147123300,2147770834,2147574226,2147572708,3548,3,13,429
1351844564,5809,991.7199707031250000,40.4982490539550800,566.4010009765625000,4.2873458862304690,55.5012283325195300,55,101,100,85,84,15534,0,0,0,0,2147121590,2147770285,2147575524,2147570660,748,3,13,16376
1351848164,5810,1004.2600097656250000,40.3364791870117200,566.2399291992188000,4.2923469543457030,55.5282211303710940,55,99,101,78,81,15527,0,0,0,0,2147124498,2147772845,2147571684,2147571794,3144,3,13,57044
1351851764,5810,1003.9600219726562000,40.2398605346679700,566.2775878906250000,4.2911758422851560,55.5393791198730500,54,98,101,78,82,15530,0,0,0,0,2147121307,2147770697,2147573714,2147568310,3330,3,13,27887
1351855364,5809,1006.5700073242188000,40.1205215454101560,566.2191162109375000,4.2929949760437010,55.5529594421386700,55,105,100,78,83,15527,0,0,0,0,2147124717,2147767588,2147573193,2147567067,124,3,13,7410
1351858964,5808,994.9400024414062000,40.0008811950683600,566.3660888671875000,4.2884311676025390,55.5785903930664060,55,100,100,78,83,15530,0,0,0,0,2147126628,2147771520,2147572470,2147570349,417,3,13,37411
1351862564,5809,1002.1099853515625000,39.4829902648925800,566.5037231445312000,4.2841591835021970,55.6571197509765600,55,98,101,78,81,15531,0,0,0,0,2147124617,2147771849,2147570944,2147570770,45,3,13,64563
1351866164,5809,1007.2999877929688000,39.7945594787597660,566.2175292968750000,4.2930450439453125,55.6073493957519500,54,99,100,78,83,15529,0,0,0,0,2147125485,2147768283,2147574774,2147567881,741,3,13,1686
1351869764,5812,1009.4799804687500000,39.9123191833496100,566.2493286132812000,4.2920570373535160,55.5916900634765600,55,98,100,78,82,15526,0,0,0,0,2147123849,2147771428,2147575817,2147568722,2767,3,13,52059
1351873364,5812,1006.5300292968750000,39.7440299987793000,566.1851806640625000,4.2940440177917480,55.6146316528320300,55,102,100,77,83,15529,0,0,0,0,2147121398,2147770413,2147574637,2147565750,1000,3,13,38012
1351876964,5811,1007.4500122070312000,39.2630996704101560,566.1671752929688000,4.2946028709411620,55.6844902038574200,55,101,101,78,82,15523,0,0,0,0,2147124525,2147769088,2147571949,2147569206,3519,3,13,46918
1351880564,5808,1007.1599731445312000,39.3368492126464840,566.1995849609375000,4.2936000823974610,55.6720886230468750,55,98,99,77,81,15525,0,0,0,0,2147126445,2147772635,2147572790,2147571638,3585,3,13,62520
1351884164,5810,1006.2999877929688000,39.2602195739746100,567.0695190429688000,4.2665920257568360,55.6964607238769500,55,99,100,78,82,15525,0,0,0,0,2147125010,2147774811,2147573970,2147573769,189,3,13,20836
1351887764,5812,1003.9799804687500000,39.8891601562500000,567.3809814453125000,4.2569179534912110,55.6086311340332000,55,101,100,77,82,15528,0,0,0,0,2147124982,2147773833,2147575113,2147566363,2950,3,13,18894
1351891364,5809,1000.8900146484375000,39.8989601135253900,567.4224853515625000,4.2556290626525880,55.6035804748535160,55,99,100,78,82,15525,0,0,0,0,2147126500,2147772013,2147571584,2147570742,3127,3,13,63830
1351894964,5809,1000.4000244140625000,39.3550415039062500,568.1124267578125000,4.2342047691345215,55.6909599304199200,56,100,100,78,81,15525,0,0,0,0,2147125339,2147771501,2147576868,2147568402,3292,3,13,63589
1351898564,5811,1002.3400268554688000,39.8708992004394500,567.9520874023438000,4.2391819953918460,55.6109809875488300,56,98,100,78,82,15527,0,0,0,0,2147126765,2147772909,2147572333,2147570276,3547,3,13,24984
1351902164,5811,1002.4699707031250000,39.5113105773925800,567.8140869140625000,4.2434668540954590,55.6666793823242200,56,98,100,78,81,15492,0,0,0,0,2147124288,2147775168,2147575826,2147569252,3250,3,13,5193
1351905764,5811,1008.2199707031250000,40.1220207214355500,567.4608154296875000,4.2544398307800290,55.5717201232910160,55,102,100,78,82,15523,0,0,0,0,2147124114,2147773467,2147572800,2147565732,3325,3,13,17298
1351909364,5810,1005.7700195312500000,40.0270996093750000,567.5482177734375000,4.2517261505126950,55.5834693908691400,55,98,100,77,82,15522,0,0,0,0,2147124900,2147778614,2147577700,2147567149,3541,3,13,47515
1351912964,5812,1006.2100219726562000,40.5771789550781250,567.6087036132812000,4.2498469352722170,55.5001487731933600,55,98,101,76,81,15521,0,0,0,0,2147124992,2147773302,2147572736,2147569810,222,3,13,51458
1351916564,5808,1009.7399902343750000,39.8539886474609400,567.4229125976562000,4.2556190490722660,55.6109199523925800,55,97,101,78,83,15523,0,0,0,0,2147123702,2147776045,2147574171,2147567972,116,3,13,21310
1351920164,5810,1017.4500122070312000,40.5997695922851560,567.3613281250000000,4.2575321197509770,55.5009307861328100,54,99,101,79,83,15521,0,0,0,0,2147124452,2147772187,2147573522,2147569554,372,3,13,6711
1351923764,5809,1012.8400268554688000,40.1958808898925800,567.3350219726562000,4.2583470344543460,55.5591316223144500,55,102,101,77,82,15513,0,0,0,0,2147122477,2147775936,2147576457,2147567670,272,3,13,4471
1351927364,5812,1015.3499755859375000,40.6215095520019500,567.3955078125000000,4.2564678192138670,55.4914894104003900,55,100,101,78,82,15521,0,0,0,0,2147121892,2147775094,2147573357,2147567588,3560,3,13,61681
1351930964,5808,1023.2000122070312000,39.3021888732910160,565.8117065429688000,4.3056387901306150,55.6772308349609400,55,99,101,78,83,15518,0,0,0,0,2147125933,2147773348,2147575990,2147573238,3331,3,13,29904
1351934564,5808,1022.0800170898438000,38.6116218566894500,565.7058715820312000,4.3089261054992680,55.7812309265136700,55,98,102,78,82,15520,0,0,0,0,2147126765,2147769737,2147569408,2147569709,88,3,13,63166
1351938164,5809,1015.5599975585938000,38.9500083923339840,566.2064819335938000,4.2933859825134280,55.7300300598144500,55,99,100,78,83,15519,0,0,0,0,2147123840,2147776420,2147571392,2147568676,74,3,13,23186
1351941764,5814,1016.2399902343750000,40.5725593566894500,567.1931762695312000,4.2627511024475100,55.4994201660156250,55,100,100,78,83,15518,0,0,0,0,2147124114,2147772416,2147576621,2147568356,3419,3,13,40938
1351945364,5811,1013.5800170898438000,40.1049995422363300,567.2512817382812000,4.2609438896179200,55.5725402832031250,55,98,101,77,83,15518,0,0,0,0,2147123492,2147775140,2147574052,2147569792,272,3,13,24335
1351948964,5809,1017.2600097656250000,40.0734100341796900,566.7393798828125000,4.2768378257751465,55.5695190429687500,56,98,99,79,82,15518,0,0,0,0,2147123044,2147771236,2147574235,2147570185,160,3,13,1108
1351952564,5811,1010.2899780273438000,40.0280990600585940,567.5809936523438000,4.2507081031799320,55.5843391418457000,54,99,100,78,84,15518,0,0,0,0,2147125467,2147773110,2147573138,2147569773,3224,3,13,28322
1351956164,5813,1011.2999877929688000,39.9432907104492200,567.5839233398438000,4.2506179809570310,55.5973091125488300,55,99,99,78,84,15519,0,0,0,0,2147128640,2147771236,2147572909,2147570267,3548,3,13,47376
1351959764,5809,1008.0399780273438000,39.6940612792968750,567.5910034179688000,4.2503972053527830,55.6322784423828100,55,102,101,78,82,15519,0,0,0,0,2147123300,2147770651,2147573915,2147567698,357,3,13,34547
1351963364,5811,1007.0399780273438000,39.5670204162597660,568.0089721679688000,4.2374148368835450,55.6619606018066400,55,98,100,79,81,15517,0,0,0,0,2147123181,2147773202,2147578660,2147570258,3,3,13,15549
1351966964,5812,1007.1599731445312000,39.3757209777832000,568.5828857421875000,4.2195868492126465,55.6885414123535160,55,98,101,77,84,15518,0,0,0,0,2147123200,2147776283,2147572745,2147573083,81,3,12,43471
1351970564,5810,1007.8900146484375000,39.6479988098144500,568.0366821289062000,4.2365531921386720,55.6444702148437500,55,100,101,79,83,15518,0,0,0,0,2147123346,2147766153,2147574336,2147569554,109,3,13,50880
1351970757,5808,1007.8599853515625000,39.5571212768554700,567.9603271484375000,4.2389278411865230,55.6574592590332000,55,100,100,79,83,15509,0,0,0,0,2147122505,2147770432,2147573376,2147570011,140,3,13,64709
